Weather Roundup
Issued by NWS Springfield, MO

Home | Current Version | Previous Version | Text Only | Print | Product List | Glossary On
Versions: 1 2 3 4 5 6 7 8 9 10 11 12 13 14 15 16 17 18 19 20 21 22 23 24 25 26 27 28 29 30 31 32 33 34 35 36 37 38 39 40 41 42 43 44 45 46 47 48 49 50
000
NZUS99 KSGF 300907
HRRSGF

HOURLY WEATHER
NATIONAL WEATHER SERVICE SPRINGFIELD MO
400 AM CDT THU MAR 30 2017

......SGF CWA......

CITY           SKY/WX    TMP DP  RH WIND       PRES   REMARKS
SPRINGFIELD    MOCLDY    53  48  83 SW8       29.62F
JOPLIN         CLOUDY    48  43  82 SW16G22   29.63F
WEST PLAINS    CLOUDY    63  59  87 S7        29.64F
ROLLA          MOCLDY    59  58  96 SW7       29.60F
OSAGE BEACH    CLOUDY    59  57  93 CALM      29.60F
BRANSON        PTCLDY    55  50  82 SW6       29.64S

......SURROUNDING SGF CWA......

CITY           SKY/WX    TMP DP  RH WIND       PRES   REMARKS
CHANUTE        LGT RAIN  47  45  93 S15       29.57F FOG
PARSONS        LGT RAIN  47  44  90 SW12      29.61F
COFFEYVILLE    CLOUDY    48  43  82 SW12      29.62F
EMPORIA        CLOUDY    45  45 100 W10       29.53S FOG
GROVE OK       CLOUDY    50  43  76 SW13      29.67F
ROGERS AR      MOCLDY    47  42  83 SW13      29.67S
SILOAM SPRINGS CLOUDY    46  37  71 SW12      29.67F
HARRISON AR    CLEAR     57  51  80 SW3       29.63F
NEAR YELLVILLE PTCLDY    61  55  82 CALM      29.60F

......KANSAS AND MISSOURI......

CITY           SKY/WX    TMP DP  RH WIND       PRES   REMARKS
KANSAS CTY INT DRIZZLE   51  51 100 E8        29.57S
DOWNTOWN KC    LGT RAIN  54  53  97 SE5       29.56F
COLUMBIA       LGT RAIN  60  60 100 S7        29.59S FOG
SEDALIA        CLEAR     55  54  96 S12       29.60S
ST JOSEPH      CLOUDY    49  49 100 E6        29.58F
ST LOUIS       CLOUDY    60  56  86 SE9       29.60F
SPIRIT OF STL  CLOUDY    58  58 100 CALM      29.60F
KIRKSVILLE     CLOUDY    48 N/A N/A NE14      29.63F
WICHITA        LGT RAIN  44  44 100 NW20G26   29.63F FOG
TOPEKA         CLOUDY    50  48  93 SE5       29.54F
OLATHE         MOCLDY    47  46  97 MISG      29.56F

......TENNESSEE......

CITY           SKY/WX    TMP DP  RH WIND       PRES   REMARKS
MEMPHIS        CLOUDY    68  59  73 SW12      29.75R
NASHVILLE      MOCLDY    68  58  70 S7        29.83F

......ARKANSAS.......

CITY           SKY/WX    TMP DP  RH WIND       PRES   REMARKS
FAYETTEVILLE   MOCLDY    47  42  83 SW10G20   29.68F
FT SMITH       PTCLDY    50  42  74 W7        29.71F
LITTLE ROCK    PTCLDY    61  60  97 S8        29.67F

......OKLAHOMA.......

CITY           SKY/WX    TMP DP  RH WIND       PRES   REMARKS
TULSA          CLOUDY    49  42  77 W16       29.67F
PONCA CITY     CLOUDY    45  41  86 W9G18     29.66F
MCALESTER      CLOUDY    49  41  74 SW7       29.74F
OKLAHOMA CITY  CLOUDY    45  39  79 W15       29.75F

......IOWA............

CITY           SKY/WX    TMP DP  RH WIND       PRES   REMARKS
DES MOINES     CLOUDY    44  40  85 E16G23    29.70F
QUAD CITIES    CLOUDY    43  40  89 E23G29    29.74F

......ILLINOIS........

CITY           SKY/WX    TMP DP  RH WIND       PRES   REMARKS
QUINCY         CLOUDY    52  50  93 E13       29.62F
CHICAGO        RAIN      42  39  89 E13       29.90F FOG



USA.gov is the U.S. government's official web portal to all federal, state and local government web resources and services.